SCP
1 1 1 0 0 0 0 0 0 0 0 0 0 0 0 0 0 0 0 0 0 1 1 1 1 0 0 0 0 0 1 0 0 0 0 0 0 0 0 0 0 0 1 1 1 1 1 1 1
1 1 1 0 0 0 0 0 0 0 0 0 0 0 0 0 0 0 0 0 1 1 1 1 1 1 0 0 0 1 1 1 1 1 1 0 0 0 0 0 0 0 1 1 1 1 1 1 1
1 1 0 0 0 0 0 0 0 0 0 0 0 0 0 0 0 0 0 0 1 1 1 1 1 1 0 0 0 0 1 1 1 1 1 1 1 1 1 1 0 0 0 0 0 0 0 1 1
0 0 0 0 0 0 0 0 0 0 0 0 0 0 0 0 0 0 0 0 1 1 1 1 1 1 1 0 0 0 0 1 1 1 1 1 1 1 1 1 0 0 0 0 0 0 0 0 0
0 0 0 0 0 0 0 0 0 0 0 0 0 0 0 0 0 0 0 0 0 1 1 1 1 1 1 1 0 0 0 0 1 1 1 1 1 1 1 1 0 0 0 0 0 0 0 0 0
0 0 0 0 0 0 0 1 0 0 0 0 0 0 0 0 0 0 0 1 0 1 1 1 1 1 1 1 1 1 0 0 1 1 1 1 1 1 1 1 1 1 1 1 0 0 0 0 0
0 0 0 0 0 0 1 1 1 0 0 0 0 0 0 0 0 0 1 1 1 0 1 1 1 1 1 1 1 1 1 0 0 0 1 1 1 1 1 1 1 1 1 1 0 0 0 0 0
0 0 0 0 0 0 1 1 0 0 0 0 0 0 0 0 0 1 1 1 0 0 0 0 0 0 1 1 1 1 1 1 0 0 0 0 0 0 1 1 1 1 1 0 0 0 0 0 0
0 0 0 0 0 0 0 0 0 0 0 0 0 0 0 0 1 1 1 1 0 0 0 0 0 0 0 0 0 1 1 1 0 0 0 0 0 0 0 0 0 1 1 0 0 0 1 1 1
0 0 0 0 0 0 0 0 0 0 0 0 0 0 0 0 0 1 1 0 0 0 0 0 0 0 0 0 0 0 0 0 0 0 0 0 0 0 0 0 0 0 0 0 0 1 1 1 1
0 0 0 0 0 0 0 0 0 0 0 0 0 0 0 0 0 0 0 0 0 0 0 0 0 0 0 0 0 0 0 0 0 0 0 0 0 0 0 0 0 0 0 0 0 1 1 1 1
0 0 0 0 0 0 0 0 0 0 0 0 0 0 1 1 0 0 0 0 0 0 0 0 0 0 0 0 0 0 0 0 0 0 0 0 0 0 0 0 0 0 0 0 0 1 1 1 1
0 0 0 0 0 0 0 0 0 0 0 0 0 1 1 1 1 0 0 0 0 0 0 0 0 0 0 0 0 0 0 0 0 0 0 0 0 0 0 0 0 0 0 0 0 1 1 1 1
0 0 0 0 0 0 0 0 0 0 0 0 0 1 1 1 1 1 1 1 0 0 0 0 0 0 0 0 0 0 0 0 0 0 0 0 0 0 0 0 0 0 0 0 0 1 1 1 0
0 0 0 0 0 0 0 0 0 0 0 0 0 0 1 1 1 1 1 1 1 1 0 0 0 0 0 0 0 0 0 0 0 0 0 0 0 0 0 0 1 0 0 0 0 1 0 0 0
0 0 0 0 0 0 0 0 0 0 0 0 0 0 0 0 0 1 1 1 1 1 1 1 1 1 1 0 0 0 0 1 0 0 0 0 0 0 0 1 1 1 1 0 0 0 0 0 0
0 0 0 0 0 0 0 0 0 0 0 0 0 0 0 0 0 0 0 1 1 1 1 1 1 1 1 1 1 0 0 1 1 1 1 1 0 0 1 1 1 1 1 1 0 0 0 0 0
0 0 0 0 0 0 0 0 0 0 0 0 0 0 0 0 0 0 0 1 1 1 1 1 1 1 1 1 1 0 0 1 1 1 1 1 1 1 1 1 1 1 1 1 0 0 0 0 0
0 0 0 0 0 0 0 0 0 0 0 0 0 0 0 0 0 0 0 0 1 1 1 1 1 1 1 1 1 1 0 1 1 1 1 1 1 1 1 1 1 1 1 1 1 0 0 0 0
0 0 0 0 0 0 0 0 0 0 0 0 0 0 0 0 0 0 0 1 1 1 1 1 1 1 1 1 1 1 1 1 1 1 1 1 1 1 1 1 1 1 1 1 1 0 0 0 0
0 0 0 0 0 0 0 0 0 0 0 0 0 0 0 0 0 0 1 1 1 1 1 1 1 1 1 1 1 1 1 1 1 1 1 1 1 1 1 1 1 1 1 1 1 1 0 0 0
0 0 0 0 0 0 0 0 0 0 0 0 0 0 0 0 0 0 1 1 1 1 1 1 1 1 1 1 1 1 1 1 1 1 1 1 0 1 0 0 0 1 1 1 1 0 0 0 0
0 0 0 0 0 0 0 0 0 0 0 0 0 0 0 0 0 0 1 1 1 1 1 1 1 1 1 1 1 2 2 1 1 1 1 0 0 0 0 0 0 1 1 1 1 0 0 0 0
0 0 0 0 0 0 0 0 1 1 0 0 0 0 0 0 0 1 1 1 1 1 1 1 1 1 1 1 1 2 2 1 1 1 1 0 0 0 0 0 0 1 1 1 1 0 0 0 0
0 0 0 0 0 0 0 0 1 0 0 0 0 0 0 0 1 1 1 1 1 1 1 1 1 1 1 1 1 1 1 1 1 1 1 1 1 0 0 0 1 1 1 1 1 0 0 0 0
0 0 0 0 0 0 0 0 0 0 0 0 0 0 0 0 1 1 1 1 1 1 1 1 1 1 1 1 1 1 1 1 1 1 1 1 1 0 0 0 1 1 1 1 1 0 0 0 0
0 0 0 0 0 0 0 0 0 0 0 0 0 0 0 1 1 1 1 1 1 1 2 2 1 1 1 1 1 1 1 1 1 1 1 1 1 1 0 0 1 1 1 1 1 1 0 0 1
0 0 0 0 0 0 0 0 0 0 0 0 0 0 0 1 1 1 1 1 1 1 2 2 1 1 1 1 1 1 1 1 1 1 1 1 1 1 1 0 0 1 1 1 1 1 1 1 1
0 0 0 0 0 0 0 0 0 0 0 0 0 0 0 0 1 1 1 1 1 1 1 1 1 1 1 1 1 1 1 1 1 1 1 0 1 1 1 1 1 1 1 1 1 1 1 1 1
0 0 0 0 0 0 0 0 0 0 0 0 0 0 0 0 0 0 1 1 1 1 1 1 1 1 1 1 1 1 1 1 1 1 1 1 1 1 1 1 1 1 1 1 1 1 1 1 0
Wind_Speed
3 2 2 2 2 3 6 5 4 4 5 5 5 4 6 7 6 7 5 4 4 5 5 6 6 6 7 7 7 8 8 8 8 8 9 9 10 10 10 10 10 10 11 11 11 10 10 9 9
1 1 3 2 1 5 6 5 5 6 6 4 5 5 6 7 6 6 5 4 4 6 6 7 7 7 7 7 7 8 8 8 8 8 9 9 10 10 10 10 10 11 11 11 11 10 10 9 9
1 2 1 0 3 5 7 5 6 6 4 2 4 5 5 6 5 5 5 5 6 6 6 8 7 7 7 7 7 8 8 8 8 9 9 9 9 10 10 10 11 11 11 11 11 10 10 10 9
2 2 1 3 8 7 6 6 5 6 4 3 4 6 6 6 4 6 7 6 6 6 6 9 7 7 8 8 8 8 8 8 8 9 9 10 10 10 11 11 11 11 11 11 11 11 10 10 10
1 1 4 6 8 6 5 4 3 3 4 4 4 7 7 6 6 8 7 6 6 6 6 8 8 8 8 8 8 8 8 8 9 10 10 10 10 11 11 11 11 11 11 11 11 11 11 11 11
1 1 4 6 8 6 5 4 4 4 6 5 5 7 7 7 7 7 7 5 6 6 5 7 8 8 8 8 8 8 8 9 9 10 10 11 11 11 11 11 11 11 11 11 11 11 12 12 11
1 2 5 7 7 6 5 3 3 4 6 5 4 6 7 7 6 7 6 6 5 5 5 5 6 7 8 9 9 8 9 9 9 10 10 10 10 11 11 11 11 11 11 11 11 11 11 12 12
1 2 5 5 6 6 5 4 3 3 5 5 2 4 6 8 7 7 6 6 5 5 5 5 5 5 6 7 9 9 9 9 9 9 8 7 8 10 9 10 12 12 11 11 11 11 11 11 11
2 2 4 5 4 6 5 5 4 3 6 5 3 5 7 10 9 8 7 6 5 4 4 4 5 5 5 6 7 7 7 7 6 7 6 3 5 7 7 11 12 12 11 11 11 10 10 9 10
1 3 5 3 3 5 5 4 5 5 6 6 6 6 8 10 9 7 7 6 6 5 4 4 4 4 4 4 4 3 4 5 4 5 5 4 5 6 7 10 10 10 10 9 9 7 6 4 5
2 4 4 3 2 3 5 4 4 4 3 3 5 8 9 9 8 7 6 5 4 4 4 3 3 4 4 3 3 3 3 3 4 5 5 4 4 4 4 4 5 6 6 6 5 4 5 6 5
4 4 3 3 3 3 3 4 3 1 1 2 4 7 10 10 8 7 5 5 4 4 4 3 3 3 3 4 3 2 3 3 3 3 5 4 3 3 4 3 4 4 3 4 4 4 6 6 6
4 3 3 3 3 3 3 3 2 1 1 3 5 7 8 8 8 6 5 5 4 4 4 4 3 3 3 3 2 2 3 3 3 3 3 4 3 3 3 3 3 4 3 3 4 4 6 6 7
3 4 3 3 3 3 3 3 2 1 2 5 6 7 8 8 7 6 5 5 5 4 4 4 4 3 3 3 3 3 3 3 2 2 3 3 3 3 3 4 4 3 3 3 3 5 4 4 5
4 4 4 2 2 2 2 3 2 2 3 5 6 6 6 6 6 6 5 4 4 4 4 4 4 4 4 3 3 2 2 2 2 2 2 3 3 3 3 3 3 3 3 3 3 5 4 4 4
5 5 4 2 0 1 4 1 2 1 3 4 4 5 6 5 6 5 5 4 3 3 4 4 4 4 4 3 3 2 2 2 2 2 1 2 3 3 3 2 2 2 2 3 3 3 3 3 3
5 4 4 3 1 2 3 1 2 1 2 3 4 4 5 5 5 5 4 4 3 3 4 4 5 4 4 4 3 2 2 2 1 2 1 1 2 2 2 2 2 2 2 2 2 2 2 3 3
5 4 4 3 2 3 4 2 1 2 2 2 3 4 4 5 5 5 4 4 3 3 3 4 4 4 4 3 3 3 2 2 1 1 1 1 1 1 2 1 2 2 2 1 2 2 2 2 2
4 5 4 2 2 3 4 3 2 1 2 2 2 3 4 4 4 4 4 4 4 4 4 4 4 4 4 3 3 2 2 2 1 1 1 1 1 1 2 1 1 1 1 1 1 2 2 1 1
6 6 4 3 2 3 4 4 3 2 3 3 3 3 4 4 4 3 4 4 4 4 4 5 5 4 4 3 3 2 2 1 1 1 1 1 1 1 1 1 1 1 1 1 1 1 0 1 0
6 6 4 3 3 5 5 5 5 3 3 2 2 3 3 3 3 4 4 3 3 4 5 5 5 5 5 4 3 2 2 2 2 2 1 1 1 1 1 1 1 1 1 1 1 1 1 0 0
6 4 5 5 6 4 5 5 3 3 3 2 3 3 3 3 3 3 3 4 4 3 3 4 5 4 4 4 4 4 3 2 2 1 1 2 1 2 1 1 1 1 1 1 2 2 1 1 1
4 3 6 7 7 7 6 7 2 3 3 2 1 2 2 2 3 3 3 3 3 3 2 3 4 4 4 4 4 4 3 2 2 2 2 2 2 1 2 1 1 1 1 1 1 1 1 1 1
4 5 5 6 6 8 5 7 3 2 1 1 1 1 2 2 2 2 2 2 2 3 2 2 2 3 3 4 4 4 4 3 3 3 2 2 1 1 2 1 2 2 1 2 2 2 2 1 1
6 6 5 6 6 4 1 5 2 1 1 2 3 2 1 1 2 2 2 2 2 3 2 2 2 2 3 4 4 4 4 3 3 3 3 2 2 1 1 2 2 2 2 2 2 2 2 3 2
7 8 6 5 5 3 4 5 1 2 1 2 2 1 0 1 2 2 2 2 2 3 3 2 2 2 2 3 4 3 3 2 2 3 3 3 2 2 2 2 2 2 2 2 2 2 3 2 3
6 7 6 7 6 7 5 3 3 1 0 2 2 2 1 1 1 2 2 2 2 2 2 3 3 2 2 2 3 3 3 3 3 3 3 2 2 2 2 2 2 1 1 2 2 2 3 3 3
4 3 5 6 6 7 6 6 2 1 2 2 2 2 2 1 1 1 2 2 1 2 2 2 2 3 3 3 2 2 3 3 3 3 3 3 2 2 2 3 2 2 2 2 2 2 2 3 2
5 5 5 5 6 6 6 2 3 1 2 3 2 2 2 1 1 1 1 1 1 2 1 2 2 2 2 3 2 2 2 3 3 2 3 3 3 3 3 3 3 2 2 2 1 2 2 3 3
5 6 7 7 6 7 6 2 4 2 2 2 2 2 2 1 1 1 1 1 1 1 1 1 1 2 2 2 2 2 2 2 2 2 3 3 3 3 3 3 3 3 3 3 3 3 3 3 3
Wind_Direction
188 205 235 232 205 104 83 81 87 99 82 64 61 56 56 43 28 64 85 84 77 86 85 89 64 64 69 74 75 72 70 68 71 73 74 73 72 72 74 76 77 77 74 76 81 82 83 83 83
266 242 235 236 180 113 92 89 90 77 90 97 79 68 70 68 57 85 101 93 91 85 81 71 65 66 68 72 77 75 73 71 72 72 74 75 73 73 73 74 76 76 74 75 77 79 82 83 83
199 264 279 126 84 82 96 94 95 100 99 106 91 60 52 68 80 92 95 111 99 87 80 75 58 66 69 72 76 77 77 75 75 74 74 74 75 75 75 76 76 76 76 75 74 76 79 81 81
244 208 181 102 92 75 87 100 111 125 106 79 97 89 78 65 75 97 114 114 102 91 86 81 60 66 67 69 74 74 74 75 75 75 74 73 72 75 76 77 77 77 77 76 75 76 78 78 77
259 221 121 107 95 91 88 91 126 118 100 95 98 97 92 86 96 111 118 112 100 91 85 85 67 66 66 68 73 74 73 72 73 72 71 71 72 75 77 77 78 78 79 79 76 75 77 76 75
186 170 127 111 105 103 104 120 133 107 104 105 107 104 95 110 118 122 119 112 102 96 92 94 86 70 64 68 73 74 74 73 73 72 72 72 73 76 76 78 78 81 80 79 76 76 76 75 74
84 100 105 112 116 112 101 111 112 113 110 105 114 108 115 126 126 131 126 119 111 105 96 89 100 99 89 75 71 75 76 74 73 73 72 73 75 76 76 77 78 80 80 79 79 79 79 76 74
355 130 121 117 122 108 112 118 96 94 96 107 131 118 127 138 139 137 133 129 122 111 99 92 91 92 103 101 81 75 75 73 74 76 75 79 91 87 82 82 75 76 79 79 79 78 79 76 72
238 155 125 118 120 111 128 131 111 107 116 117 100 87 109 134 147 147 143 139 131 121 108 98 96 97 94 92 99 99 94 81 94 98 94 101 88 84 87 75 74 74 78 79 79 80 82 86 83
186 130 107 102 109 114 133 132 135 141 130 130 126 120 131 146 158 158 152 148 142 135 117 104 103 103 99 92 104 99 96 95 82 82 90 84 78 75 77 88 81 79 79 87 84 88 101 87 81
111 108 110 115 111 127 137 128 141 146 130 142 151 151 153 161 166 166 158 148 139 128 123 126 117 109 105 104 92 88 87 87 83 80 85 86 87 96 86 89 98 89 86 79 94 98 71 68 62
123 107 115 107 110 141 141 134 134 142 68 88 139 153 160 169 169 169 163 151 150 142 136 136 132 128 119 109 101 101 96 91 83 80 78 81 83 82 84 80 76 72 67 62 61 68 71 69 68
131 115 101 107 120 130 133 143 139 124 120 116 132 152 164 168 169 168 165 165 164 158 160 151 156 142 130 112 113 115 104 98 100 86 85 88 91 87 88 84 80 71 69 69 66 72 70 65 62
118 126 120 119 124 126 140 138 155 105 148 150 152 158 165 169 170 168 174 178 170 173 171 156 168 161 151 140 143 117 109 113 99 94 90 92 93 90 88 83 77 70 65 62 66 76 76 69 66
153 147 134 110 121 123 174 150 139 91 160 164 166 162 164 171 173 179 181 187 179 174 176 166 175 178 170 151 133 119 125 116 106 99 100 103 97 100 97 87 82 75 75 74 65 73 74 76 76
174 183 169 129 134 172 227 178 79 110 181 174 175 166 168 173 181 182 184 191 189 176 178 166 177 187 179 165 156 141 134 115 107 102 99 102 107 104 96 96 90 86 81 78 73 71 78 79 75
194 200 185 161 168 196 227 251 75 114 190 192 192 182 176 173 181 184 181 184 185 183 176 165 172 182 178 169 161 146 144 130 115 111 105 98 104 110 108 98 101 92 84 80 80 71 67 77 78
204 214 210 203 170 202 217 233 155 152 186 211 195 195 190 187 182 177 179 175 177 182 175 163 162 176 166 165 169 157 155 147 127 111 117 110 114 120 110 131 128 112 115 102 98 96 82 74 83
230 229 231 214 188 228 232 245 247 184 199 223 211 199 199 198 182 176 178 181 180 181 181 169 171 170 170 172 180 177 171 169 149 125 105 130 147 152 133 157 130 132 137 134 115 102 109 101 93
223 227 224 195 180 243 244 251 260 244 225 243 248 220 205 199 180 180 190 189 190 190 198 190 181 177 179 184 186 169 160 168 143 147 154 149 147 146 137 171 154 157 156 160 133 125 123 91 112
222 234 234 235 226 222 252 247 224 205 210 220 244 245 218 211 195 182 184 193 197 201 200 200 189 182 181 176 176 162 158 176 173 175 156 136 153 154 159 179 175 172 190 170 166 174 184 185 119
227 231 239 232 243 238 244 267 228 210 206 223 233 234 232 218 209 190 182 186 191 198 209 205 190 183 178 176 182 185 189 191 198 181 151 141 145 153 160 174 197 176 168 186 184 194 206 209 200
243 238 234 241 254 258 238 258 236 187 235 237 231 231 236 222 209 194 186 188 185 174 186 213 193 182 176 182 181 198 197 194 183 177 164 162 147 152 155 184 188 185 176 196 176 191 231 209 224
198 207 208 221 240 247 247 252 257 205 263 308 296 264 258 233 194 183 164 158 157 157 162 185 196 187 179 184 191 195 198 194 184 184 181 173 151 162 168 190 199 201 199 206 195 191 209 232 224
215 228 228 221 220 236 197 248 248 68 9 320 320 303 286 219 174 163 152 152 156 159 163 165 171 181 187 190 194 196 201 201 197 190 190 188 177 178 180 184 212 221 222 226 214 206 222 223 222
218 234 249 260 256 253 214 239 171 93 359 331 326 325 101 151 152 153 154 150 150 158 170 175 173 176 175 190 198 198 192 197 208 204 197 199 199 191 194 193 204 221 237 231 223 231 226 237 230
220 228 262 272 267 262 234 212 190 150 302 6 17 22 39 100 139 136 135 142 144 156 172 182 177 169 163 175 185 194 193 193 203 206 207 203 204 204 203 199 210 212 234 242 225 234 228 235 238
270 228 221 239 255 255 246 239 243 215 307 348 1 359 14 50 104 108 116 129 135 129 150 173 180 177 168 173 179 175 190 195 201 202 204 208 207 215 214 211 209 203 212 230 235 241 248 239 229
186 204 232 240 252 264 262 236 49 332 340 338 355 355 1 38 68 100 111 116 122 116 138 163 169 172 173 178 180 177 180 194 195 206 206 217 209 212 218 230 226 217 214 223 225 245 243 244 235
241 231 233 245 239 247 265 271 74 20 357 341 350 13 18 15 54 79 108 118 112 129 147 164 174 173 180 187 190 193 182 187 192 204 214 221 221 218 222 228 237 232 227 225 227 236 242 246 251